Wind_Speed
40 41 42 43 44 45 46 46 47 47 47 47 48 48 48 48 48 47 48 48 49 50 51 51 52 53 54 56 57 58 59 60 61 62 63 64 65 66 68 68 69 69 69 69 70 70 69 68 67 65 65 64 64 65 65 65 65 65 66 67 67 70 72 72 73 71 65 65 68 70 73 74 73 74 77 77 76 78 78 79 80 81 82 82 82
42 42 43 44 45 46 46 46 46 46 46 47 47 47 47 47 47 48 49 49 50 51 52 53 54 55 57 58 59 60 61 62 63 64 65 67 68 69 69 69 69 69 69 70 70 69 68 66 65 65 64 65 65 65 65 65 65 65 66 68 68 70 74 76 77 77 74 70 71 73 75 77 76 76 79 80 80 81 82 82 83 84 84 85 84
43 44 45 45 46 46 46 46 46 46 46 46 46 46 46 47 48 49 50 51 52 53 54 56 57 58 59 60 61 62 63 64 65 66 67 68 69 69 69 69 69 70 70 70 69 68 66 65 65 65 65 65 65 66 66 66 66 67 68 70 72 73 76 80 81 82 82 78 76 76 78 80 81 81 82 84 85 85 85 86 86 86 86 87 86
45 46 46 47 48 48 47 47 46 46 46 46 46 47 47 48 50 51 52 53 55 56 57 58 59 60 61 62 63 64 65 66 67 68 68 69 69 70 70 70 70 70 70 69 67 66 65 64 65 65 65 65 65 66 67 68 68 70 72 74 76 78 80 83 85 87 87 85 82 81 83 85 86 86 87 88 89 89 89 89 88 88 88 88 88
47 47 48 49 49 48 48 48 48 48 47 47 48 48 49 50 52 53 54 55 56 57 58 59 60 61 62 64 65 66 67 68 69 70 70 70 71 71 71 71 71 70 68 66 65 64 64 64 64 65 65 65 66 67 69 70 72 74 76 78 80 83 84 86 88 90 91 91 89 87 88 89 90 90 90 91 91 91 90 90 89 89 89 88 87
48 49 49 49 49 49 49 49 48 48 48 48 49 50 51 52 53 54 55 57 58 59 60 61 62 64 65 66 67 68 69 70 71 71 71 71 71 71 71 70 68 67 65 64 63 63 63 64 65 66 67 68 69 71 72 74 76 77 80 82 84 86 87 89 91 93 94 95 95 94 92 92 93 92 92 92 93 92 92 91 90 89 89 89 88
50 50 50 50 50 50 50 49 49 49 50 51 51 52 53 54 55 56 57 58 60 61 62 63 65 66 67 68 69 70 71 71 71 71 71 71 70 69 68 66 65 63 63 62 63 63 64 66 67 69 70 72 73 75 77 78 80 81 83 86 88 89 91 92 94 96 97 98 98 98 96 95 95 94 93 93 94 94 94 93 92 90 90 90 89
51 51 51 51 51 52 52 51 51 52 53 54 54 55 55 56 57 59 60 61 63 64 65 66 67 68 69 70 70 71 71 71 71 71 70 69 67 66 64 63 62 61 62 63 64 66 67 69 71 73 74 76 78 80 81 83 85 86 88 90 93 94 95 96 97 98 99 100 99 99 98 98 96 95 94 95 95 95 95 96 95 93 92 91 90
52 52 52 53 53 54 54 54 54 55 56 56 56 57 58 59 61 62 63 64 65 66 67 68 69 69 70 70 71 71 71 71 71 69 67 65 64 63 62 62 62 63 64 66 67 70 72 73 75 77 79 81 83 85 87 89 90 91 92 94 96 97 97 98 98 99 99 100 100 99 99 99 97 96 96 96 97 97 96 96 96 95 93 92 90
52 53 53 54 55 56 57 57 57 57 58 58 59 60 61 62 63 64 65 66 67 68 69 69 70 70 71 71 71 72 71 69 68 66 65 64 63 63 64 64 66 67 68 70 71 73 75 77 79 81 83 86 88 90 91 93 94 95 96 96 97 98 98 98 98 98 99 100 100 99 100 99 97 96 97 96 96 97 96 96 96 95 94 93 90
54 55 56 57 58 59 59 59 59 59 60 60 61 62 63 64 66 66 67 68 69 70 70 70 70 71 71 72 71 70 68 66 65 65 65 65 65 66 67 68 70 71 73 74 75 77 79 81 83 85 88 90 92 93 94 95 96 97 97 97 98 98 99 100 99 99 100 101 100 100 99 99 97 96 96 96 96 97 97 97 98 97 97 97 95
56 57 58 59 59 60 61 61 61 61 62 63 64 65 65 66 67 68 69 70 71 71 70 71 71 72 71 70 68 67 66 66 66 66 67 68 69 70 72 73 74 75 77 79 80 82 84 86 87 89 91 93 95 96 96 97 98 98 99 99 99 100 100 101 102 102 102 102 101 100 99 99 99 98 97 98 99 100 100 101 101 101 100 100 98
58 59 59 60 60 61 62 63 64 64 64 65 66 67 67 68 68 69 70 71 71 71 71 72 72 71 69 67 67 67 67 67 68 69 70 72 73 75 76 77 78 80 82 84 86 87 89 90 91 92 93 95 97 98 99 99 100 101 101 101 101 101 101 101 102 103 103 103 103 102 101 101 102 102 101 102 103 103 103 103 103 102 101 100 98
59 60 60 61 62 63 64 65 66 67 67 68 68 69 69 69 70 71 72 72 72 72 72 71 70 68 67 66 67 68 69 69 71 72 74 76 77 79 80 81 83 84 86 88 90 92 93 94 95 95 96 97 99 100 101 102 103 103 103 103 103 102 102 101 102 103 105 106 107 106 104 104 105 105 104 105 105 105 105 104 102 100 99 96 93
61 62 62 63 64 65 66 67 68 69 70 70 70 70 70 70 71 72 72 72 72 71 70 68 67 66 66 66 67 69 71 73 75 77 78 80 81 83 84 85 87 88 90 92 93 94 95 96 97 98 98 99 100 102 104 105 106 105 105 104 103 103 102 102 104 106 107 108 109 110 109 107 107 107 107 106 106 105 103 102 99 96 94 90 87
63 64 64 65 66 67 68 69 70 70 71 71 71 70 71 71 72 72 72 71 70 68 67 66 66 66 67 68 70 73 75 77 79 81 82 84 85 86 88 89 91 92 93 93 94 96 96 98 99 100 101 102 103 104 105 106 106 106 106 105 105 104 104 104 105 108 109 110 111 111 110 109 109 108 106 105 103 101 100 99 96 92 89 86 83
65 66 67 68 68 69 70 70 70 70 70 70 70 70 71 71 71 71 70 68 67 67 66 67 67 68 69 71 73 76 79 81 82 84 86 87 88 90 91 93 93 94 94 95 96 97 98 100 102 103 104 105 104 104 104 105 106 107 108 108 108 107 106 106 107 109 110 111 111 111 110 109 107 105 103 101 99 97 97 96 93 89 88 85 80
67 68 69 69 69 69 69 69 69 69 69 69 69 70 70 70 69 68 67 67 66 66 67 68 69 71 73 75 77 79 82 84 85 87 88 90 92 93 94 95 95 96 96 97 98 99 101 102 103 104 105 104 104 103 103 105 106 108 109 111 111 111 110 110 110 110 110 111 111 110 109 106 103 101 99 97 96 95 95 94 92 88 86 83 78
68 68 69 68 68 68 68 67 67 67 67 67 68 68 68 67 67 66 66 66 67 67 68 70 72 74 77 79 81 82 84 86 88 89 91 93 94 95 95 96 97 98 99 100 101 102 102 103 103 103 103 104 104 105 105 107 109 111 112 114 114 114 114 114 114 113 112 110 108 106 104 103 101 100 98 96 95 94 93 92 90 87 84 81 76
67 66 66 66 66 65 65 65 65 66 66 66 66 66 66 66 66 66 66 67 68 69 71 73 75 77 80 82 83 85 87 88 90 92 93 93 94 95 96 98 99 100 101 102 103 103 102 102 101 102 103 104 106 107 108 109 111 113 115 116 117 117 117 117 115 113 111 108 105 103 102 101 101 101 100 98 96 94 91 89 86 84 81 77 74
64 63 63 63 63 64 64 64 64 64 64 64 64 64 65 65 66 67 68 69 71 72 74 76 78 80 82 84 86 88 89 90 92 92 93 93 94 96 97 99 100 101 102 102 102 102 102 102 102 102 104 105 106 108 109 110 112 113 115 116 117 117 117 116 113 111 109 107 105 104 103 102 102 100 99 96 93 90 86 82 80 77 75 72 70
62 62 62 62 62 62 62 62 62 63 63 63 64 65 65 67 68 69 71 72 74 76 77 79 80 82 84 86 88 89 90 91 92 92 93 94 95 97 98 99 100 101 101 101 101 101 102 103 103 104 105 107 108 109 110 111 112 113 114 115 115 114 113 113 111 110 109 108 106 104 102 99 96 94 91 88 85 82 77 74 71 69 68 66 65
61 61 61 61 61 61 61 61 62 63 63 64 65 66 68 69 71 72 74 75 77 79 81 82 83 84 86 87 89 89 90 91 91 92 93 94 96 96 97 98 99 99 100 101 101 102 103 104 106 107 108 109 110 111 111 112 113 113 113 112 111 110 111 111 111 110 108 106 102 98 93 89 85 83 80 78 75 72 68 65 64 63 62 61 60
60 60 60 60 60 61 62 62 63 64 65 66 67 69 70 72 74 75 77 79 80 82 83 85 86 86 87 87 88 89 90 91 92 93 93 94 95 96 96 97 97 99 100 101 103 104 105 107 108 109 110 110 111 111 112 112 112 111 109 108 108 109 109 109 108 105 102 97 92 87 82 78 76 74 72 69 67 64 61 59 58 57 57 57 56
59 59 59 60 61 62 63 64 65 66 67 69 70 71 73 75 77 78 80 82 83 84 85 86 86 87 87 88 89 90 91 91 92 93 93 94 94 95 95 96 98 100 101 103 104 105 106 108 109 110 111 111 112 112 112 111 109 107 106 106 106 106 105 103 100 96 91 87 82 77 74 71 69 68 67 64 61 58 55 53 53 52 53 54 53
58 59 60 61 62 63 64 66 67 68 69 71 72 74 76 78 80 81 82 83 84 85 85 86 87 87 88 89 89 90 91 92 92 92 93 93 93 94 95 97 99 100 102 103 104 105 106 107 108 110 111 112 112 112 111 108 106 105 104 104 102 100 97 94 90 85 81 78 74 70 68 67 65 64 63 60 57 53 50 49 48 48 49 50 49
59 60 61 62 64 65 66 67 69 70 72 74 76 77 79 80 81 82 82 83 84 85 86 86 87 88 89 89 90 90 91 92 92 91 91 92 93 94 96 98 99 101 102 103 104 105 106 107 109 110 111 111 110 108 107 105 104 103 102 99 94 90 86 83 80 77 74 71 68 65 64 63 62 60 58 55 52 49 46 45 44 44 45 45 45
61 62 63 64 66 67 68 70 71 73 75 76 77 78 79 80 81 82 83 83 84 85 86 87 88 89 89 90 90 90 90 91 91 91 92 94 95 96 98 99 100 102 103 104 105 106 107 107 108 108 108 107 105 103 102 101 100 98 95 90 85 80 77 74 72 69 68 66 64 61 60 59 57 56 53 50 47 44 42 42 41 41 41 40 40
63 64 66 67 68 69 70 71 73 74 75 76 77 78 79 79 80 81 82 84 84 86 87 88 88 89 90 90 90 89 89 90 91 93 94 95 97 98 99 99 100 101 103 104 104 105 105 105 105 104 104 103 102 100 98 96 93 89 85 80 76 72 69 67 65 63 62 62 60 58 56 55 53 51 48 45 42 40 39 38 37 37 36 35 35
65 66 66 67 68 69 71 72 73 74 76 77 77 78 79 80 81 82 83 84 85 86 87 88 88 89 89 89 89 90 90 91 92 93 94 94 95 95 96 96 97 98 100 101 101 102 103 103 102 101 101 101 100 97 94 90 86 81 76 72 69 66 64 62 61 59 58 57 56 54 53 51 49 47 44 41 39 37 36 34 33 33 32 31 31
65 66 67 68 69 71 72 73 74 76 77 78 78 79 79 81 82 83 83 84 85 86 87 87 87 87 87 88 89 91 92 92 92 93 92 92 91 91 91 92 93 95 97 98 99 100 101 100 100 99 98 97 95 92 88 84 79 75 71 68 65 62 60 58 57 55 54 53 51 50 49 48 45 43 41 39 37 35 33 32 30 29 29 28 28
67 68 69 70 72 73 74 75 76 78 78 79 79 79 80 81 81 82 83 84 84 85 85 85 86 87 88 88 89 90 90 91 91 90 90 89 88 88 88 89 91 93 94 96 97 98 98 98 98 97 95 92 88 85 81 78 74 71 69 66 63 60 58 56 54 52 51 49 48 47 46 44 42 40 38 36 35 33 32 30 29 27 26 26 27
69 70 72 73 74 75 76 77 78 79 79 79 79 79 80 80 81 81 82 82 83 84 84 85 86 87 87 88 88 88 88 88 87 87 87 86 86 86 87 88 89 91 92 94 95 96 96 96 95 93 90 86 82 78 74 72 71 69 67 65 62 59 56 54 52 50 49 47 46 45 44 42 39 37 35 34 33 32 30 29 27 26 25 25 25
72 73 74 74 75 77 77 78 79 78 78 78 78 79 80 80 80 80 81 81 82 84 85 86 86 86 86 86 86 86 85 85 84 84 83 83 84 85 85 86 88 89 91 93 94 94 94 93 92 89 85 82 78 73 69 68 68 67 64 62 59 56 54 52 51 49 47 46 44 43 42 40 38 36 34 32 30 29 28 27 26 24 23 23 22
73 74 75 75 76 77 78 78 79 78 78 78 78 78 79 79 79 80 81 82 83 84 84 85 85 85 85 84 84 83 83 82 82 81 81 82 83 83 84 84 85 87 90 92 93 93 92 92 89 84 81 77 74 70 67 66 65 64 62 61 58 55 52 50 48 47 46 44 42 41 40 38 36 34 32 30 28 27 26 25 23 22 21 20 20
75 76 76 77 78 79 79 79 78 77 77 77 78 78 79 79 80 82 82 83 83 84 84 84 84 83 83 82 80 80 79 79 79 79 80 82 83 83 84 84 84 86 89 91 91 90 90 89 85 79 76 73 70 67 65 64 64 63 62 60 57 53 51 48 46 44 43 41 40 38 37 35 34 32 30 28 25 24 23 22 21 19 18 18 18
76 77 77 78 79 79 78 78 77 76 77 78 79 80 80 81 82 83 83 83 83 83 83 82 81 80 79 78 77 76 76 76 77 78 80 82 83 83 84 84 84 87 89 90 89 89 88 85 80 74 71 69 66 63 62 62 63 62 60 57 54 51 49 47 45 43 41 38 37 35 33 32 31 29 27 25 22 21 20 19 18 17 17 17 17
77 77 78 78 78 78 77 77 77 77 78 79 81 81 82 83 83 83 83 83 83 82 81 80 79 77 76 74 74 73 73 74 76 77 79 81 82 82 82 83 85 88 89 89 88 88 86 81 75 70 68 65 63 60 59 60 61 60 58 55 52 50 48 46 43 41 39 37 34 32 30 29 27 26 24 22 20 18 17 16 16 16 17 17 16
76 77 77 77 77 77 77 77 78 79 80 81 82 82 83 83 83 83 83 82 81 80 79 78 76 75 73 72 71 71 72 73 75 77 78 79 80 81 81 82 85 88 88 87 86 87 84 77 71 67 65 62 60 58 57 58 59 58 55 52 51 49 47 44 41 39 37 35 32 30 28 26 24 22 21 19 18 16 15 15 15 15 16 16 16
76 77 77 78 78 78 79 79 80 81 82 82 82 83 83 83 82 82 81 80 79 78 76 75 73 72 71 70 70 71 72 74 75 77 77 78 78 79 80 82 85 87 86 85 85 85 80 73 67 64 61 59 57 55 55 57 58 56 52 50 50 48 45 42 40 38 36 33 31 29 26 24 22 20 18 17 16 16 15 14 14 14 14 15 15
77 78 79 79 79 80 80 81 81 82 82 82 82 82 82 82 81 80 78 77 75 74 72 71 70 69 69 70 70 71 73 74 75 76 76 77 77 78 80 83 85 85 84 83 84 82 76 68 63 61 58 56 54 52 52 55 56 53 49 46 46 44 41 39 37 35 34 31 29 27 25 23 21 19 17 16 15 14 14 13 13 13 14 14 14
78 80 80 80 80 80 81 82 82 82 82 82 81 81 80 79 78 77 75 73 72 70 69 69 68 68 69 70 71 72 73 73 74 74 75 76 76 78 80 83 84 83 82 82 83 79 71 64 60 58 56 54 51 49 48 51 53 51 46 43 41 39 37 35 33 31 30 27 25 24 21 19 19 18 16 14 13 12 11 10 12 14 13 12 12
81 81 81 81 81 81 81 81 81 81 80 80 80 79 78 76 75 73 71 70 69 68 67 67 68 68 70 71 71 72 73 73 73 74 75 75 76 77 80 82 82 81 81 82 81 75 67 61 57 55 54 52 50 48 46 47 48 47 43 40 39 38 36 34 32 31 29 26 23 21 18 16 15 13 11 8 7 7 8 9 11 12 11 10 10
81 81 82 82 82 81 80 80 79 79 79 78 78 77 75 73 71 69 68 67 66 66 67 67 68 69 70 71 72 73 73 73 73 74 74 74 75 77 79 80 80 80 80 80 77 70 63 58 55 53 51 50 48 47 45 44 43 42 39 37 37 36 35 35 34 33 30 27 24 21 18 16 13 10 6 5 4 6 8 9 10 10 9 10 14
82 82 82 82 81 80 79 78 78 78 77 76 75 73 71 69 67 66 65 65 65 66 67 68 68 69 71 72 72 72 72 73 73 73 73 74 75 77 78 79 79 79 79 78 73 66 60 56 52 50 48 47 46 45 43 40 38 37 34 32 32 33 33 34 34 32 29 26 23 21 19 16 13 9 7 6 6 7 9 9 9 11 14 16 19
82 82 81 81 79 78 77 77 76 76 75 73 71 69 68 66 65 64 63 64 65 66 67 68 69 70 71 72 72 71 71 72 72 72 73 74 75 77 77 78 78 78 78 76 70 63 58 54 50 47 46 44 43 43 42 38 34 32 30 29 29 30 30 31 31 30 26 22 19 19 18 16 11 6 2 1 4 7 9 11 14 15 17 19 21
81 81 80 79 77 76 75 75 74 72 71 69 68 66 65 64 63 62 63 64 65 67 68 68 69 70 71 70 70 70 70 71 71 71 72 74 75 76 76 77 77 77 77 73 67 60 56 52 49 46 44 42 41 40 40 37 33 29 27 27 27 28 28 28 29 28 26 22 17 16 17 17 14 11 9 10 12 14 15 15 15 15 17 18 19
80 79 78 76 75 74 73 71 70 68 67 66 65 64 63 62 62 62 63 65 66 67 68 68 69 70 69 69 68 68 69 69 70 71 72 74 74 75 76 76 76 76 75 70 64 58 54 51 48 45 43 40 38 38 38 36 33 29 27 27 27 27 27 27 27 27 26 24 20 17 16 17 17 15 12 11 11 12 13 13 13 15 16 17 17
77 76 74 73 72 70 69 68 66 65 65 64 63 62 61 62 62 63 64 65 66 66 67 67 68 68 68 67 67 67 68 68 70 71 72 73 73 74 75 76 76 76 73 67 61 56 53 50 46 44 42 39 37 36 36 35 33 30 28 27 26 26 25 26 25 24 23 22 20 18 15 15 15 13 10 5 3 6 8 11 12 14 15 16 15
74 72 71 69 68 66 65 64 63 63 62 62 61 61 62 62 63 63 63 64 65 66 66 67 67 67 66 65 65 66 67 68 70 71 72 72 73 74 75 76 76 74 70 64 59 55 52 48 45 43 41 39 36 35 34 34 33 31 29 28 27 25 24 23 23 22 20 19 17 15 12 10 9 8 7 5 4 5 7 9 11 12 13 14 14
70 68 67 65 63 62 62 61 61 61 61 61 61 62 63 63 63 63 63 64 65 65 66 67 66 65 64 64 64 65 67 68 69 71 71 72 73 74 75 75 75 72 67 61 57 53 50 47 44 42 41 39 36 34 34 33 32 31 29 28 27 26 25 23 21 20 19 17 15 13 10 8 5 4 4 4 6 7 9 11 12 13 14 14 14
Wind_Direction
274 273 273 273 273 274 274 274 275 276 276 277 278 279 279 280 281 282 283 284 285 285 286 287 288 289 290 290 291 292 293 294 295 296 296 297 298 298 299 299 299 299 299 299 300 300 300 299 298 298 298 298 297 297 297 297 297 297 297 297 297 297 297 297 296 297 298 297 296 295 294 293 293 293 293 292 292 292 292 292 292 292 292 292 292
275 275 275 275 275 274 275 275 276 276 277 278 278 279 279 280 281 283 283 284 285 286 287 288 289 290 291 291 292 293 294 295 295 296 297 297 298 298 298 298 299 299 299 299 299 299 299 298 298 298 298 298 298 297 297 296 296 296 296 296 296 295 295 296 295 296 296 296 295 294 293 293 293 293 292 292 292 291 292 292 291 292 291 291 291
276 276 276 276 276 276 276 276 276 277 277 278 278 279 280 281 282 283 284 285 286 287 288 289 290 291 291 292 293 293 294 295 295 296 296 297 297 298 298 299 299 299 299 299 299 298 298 298 298 298 298 298 298 297 296 296 295 295 295 294 295 295 295 295 295 295 296 296 296 295 294 293 293 293 293 293 292 292 292 292 292 291 291 291 291
276 276 276 276 275 275 275 275 276 276 277 278 279 280 282 283 283 284 285 286 287 288 289 289 290 290 291 292 293 294 294 295 296 296 297 298 298 299 299 299 299 298 298 298 297 297 297 297 297 298 298 298 297 296 295 294 294 294 294 294 294 294 295 295 296 296 296 296 296 296 295 295 295 295 295 294 294 293 293 293 292 292 291 291 291
275 275 274 274 273 273 273 274 274 275 277 278 280 281 282 283 284 285 286 286 287 288 289 289 290 291 292 293 294 295 296 296 297 297 298 298 298 298 298 298 297 297 297 296 296 296 296 296 296 296 296 296 296 295 294 294 293 294 294 294 294 295 295 296 296 296 297 297 297 297 296 296 296 296 296 295 294 294 293 293 292 292 292 291 291
274 273 273 272 272 272 273 273 275 276 278 280 281 282 283 284 284 285 286 287 288 289 290 291 292 294 295 295 296 296 296 297 297 297 297 297 297 297 296 296 296 296 296 296 296 296 296 296 296 296 296 296 296 295 294 294 294 294 295 295 295 296 296 296 297 297 297 297 298 298 297 297 297 297 296 295 295 294 293 292 292 292 291 291 290
272 272 271 271 272 273 274 275 277 279 280 281 282 283 284 285 286 286 288 289 290 291 292 293 294 295 295 296 296 296 296 296 296 296 296 296 295 295 295 295 295 295 295 295 295 295 296 296 297 297 297 297 296 296 296 296 296 296 296 296 297 297 297 298 298 298 298 298 298 298 298 298 298 298 297 295 295 294 293 292 292 292 291 290 290
271 271 271 272 273 274 276 277 279 280 281 282 283 285 286 287 288 289 290 291 292 293 293 294 295 295 295 295 295 295 295 295 295 295 295 295 295 294 294 294 294 294 294 295 296 297 297 298 298 298 298 298 298 298 298 298 298 298 298 298 299 299 299 299 299 299 299 298 298 298 298 298 298 298 296 295 295 294 293 292 292 292 290 290 289
270 271 272 273 274 275 276 277 279 280 282 283 285 286 287 288 289 290 291 292 292 293 294 295 295 295 295 295 295 295 295 295 295 295 295 294 294 294 294 294 294 295 296 297 298 298 299 299 299 299 299 300 300 300 300 300 300 300 300 300 300 300 300 300 299 299 298 298 297 297 297 297 298 297 296 295 294 293 293 292 292 291 290 289 289
271 272 273 274 275 276 277 278 280 281 283 284 286 287 288 289 290 291 292 292 293 294 294 295 295 295 295 295 295 296 296 296 295 295 295 295 295 295 295 296 297 298 298 298 299 299 299 300 300 301 301 301 301 301 301 301 301 301 301 301 301 300 300 300 299 299 298 297 297 297 297 297 297 297 296 295 294 293 293 292 292 291 290 290 289
272 273 274 275 276 277 278 279 281 282 283 285 286 287 288 289 291 291 292 292 293 294 295 295 295 295 295 296 296 296 296 296 296 296 296 296 297 297 297 298 299 299 299 300 300 300 300 301 301 302 302 302 302 302 301 301 301 301 301 301 301 300 300 300 300 299 298 297 297 298 298 298 297 296 296 295 294 293 293 292 291 291 290 290 290
272 273 275 276 277 278 279 280 282 283 284 286 287 288 289 290 291 292 292 292 293 294 295 295 295 295 296 296 296 296 296 296 297 297 297 298 299 299 299 300 300 301 301 301 301 301 301 301 302 302 302 302 302 301 301 301 301 301 301 301 301 301 301 300 300 299 298 298 298 298 298 298 297 296 295 295 293 293 292 291 291 290 290 290 290
273 274 275 277 278 279 281 282 283 284 286 287 288 289 290 291 291 291 292 293 294 294 294 295 295 295 295 296 296 296 297 297 297 298 299 299 300 300 301 301 301 302 302 302 302 302 302 302 302 303 303 303 302 302 301 301 301 301 301 301 301 301 300 300 300 300 299 299 298 298 298 297 296 296 295 294 293 293 292 291 291 290 290 290 290
274 275 277 278 279 281 282 283 285 286 287 288 289 290 290 291 291 291 292 293 293 294 294 294 294 294 295 296 297 297 297 297 298 299 299 300 300 301 301 302 302 303 303 303 303 303 303 303 303 303 303 303 302 302 302 301 301 301 301 301 301 301 301 301 301 300 299 299 299 298 298 297 297 297 296 295 294 294 293 292 291 291 291 291 291
275 276 278 279 281 282 283 284 286 287 288 289 289 289 290 290 290 291 292 292 293 293 293 293 294 294 296 297 298 298 297 298 298 299 300 300 301 301 302 302 303 303 303 303 303 303 303 303 303 303 303 303 302 302 302 302 302 302 302 302 302 302 302 302 301 300 299 299 299 298 298 298 297 297 296 296 295 294 293 292 292 291 291 290 290
277 278 279 280 282 283 284 285 286 287 287 288 288 289 289 289 290 291 291 292 292 293 293 293 294 296 297 298 298 298 298 298 299 300 300 301 301 302 302 302 303 303 303 303 303 303 304 303 303 303 303 303 303 303 303 303 304 304 303 303 303 303 302 301 300 299 299 299 298 298 298 298 297 297 296 295 294 294 293 291 291 291 290 289 290
278 279 280 281 282 283 284 285 285 286 287 287 288 288 289 289 290 291 291 292 292 292 293 295 296 297 298 298 298 298 298 299 300 300 301 301 301 302 302 302 303 303 303 304 304 304 304 303 303 304 304 304 304 304 304 304 304 304 304 304 303 302 302 300 299 299 299 299 298 298 298 297 297 296 295 294 293 292 291 290 290 289 288 288 289
279 279 280 281 282 283 284 284 285 286 286 287 287 288 288 289 290 291 291 291 292 294 296 297 297 297 297 297 297 298 299 299 300 300 301 301 302 302 302 303 303 303 303 303 303 303 303 304 304 304 305 305 305 305 305 305 304 304 304 303 302 302 301 300 299 299 299 299 299 299 298 297 297 296 294 293 292 291 290 289 288 287 287 287 288
279 280 280 281 282 283 284 284 285 285 286 286 287 287 288 289 289 290 291 293 294 296 297 297 296 296 297 297 298 298 299 300 300 301 301 302 302 302 302 302 303 303 303 303 303 303 304 304 305 305 305 305 305 305 305 305 305 304 304 303 303 303 303 302 302 301 301 300 299 299 298 297 296 295 294 292 291 289 288 287 286 285 284 285 285
279 279 280 281 282 283 284 284 284 285 285 286 286 287 288 289 290 292 294 295 295 295 295 295 295 296 297 298 298 299 300 300 301 301 301 302 302 302 302 302 302 303 303 303 304 304 304 304 305 305 305 306 306 306 306 306 305 305 305 305 305 305 304 304 303 303 302 301 300 299 298 297 295 294 293 291 290 288 287 286 284 283 282 281 281
279 280 281 282 282 283 284 284 284 285 285 286 287 288 290 292 293 294 294 294 294 294 294 295 296 297 298 298 299 299 300 300 300 301 301 302 302 302 302 303 303 304 304 304 305 305 305 306 306 306 306 306 306 306 306 306 306 306 306 306 306 306 305 305 304 304 303 302 301 299 298 296 295 293 292 291 290 288 286 284 282 280 278 277 277
280 281 282 282 283 284 284 284 285 285 286 288 290 291 292 292 292 292 292 293 293 294 295 296 296 297 298 299 299 299 300 300 300 301 301 301 302 303 303 304 304 305 305 305 305 306 306 307 306 306 306 305 306 306 306 306 307 307 307 307 307 306 306 305 305 304 303 302 300 299 298 297 295 294 293 292 290 288 286 282 279 276 274 273 273
281 282 282 283 283 284 284 285 286 288 289 290 290 290 291 291 291 292 293 294 294 295 295 296 297 298 298 298 299 299 299 300 300 301 301 302 303 304 304 305 305 305 305 306 306 307 307 307 306 306 306 306 307 307 307 308 308 308 308 308 307 307 306 305 304 303 302 301 301 300 299 298 297 296 295 293 291 288 285 280 275 272 269 268 269
281 282 282 283 283 284 286 287 288 289 289 289 289 290 290 291 292 293 294 294 295 295 296 296 297 297 298 298 298 299 299 300 300 301 302 303 304 304 305 305 305 305 306 307 307 307 307 306 307 307 307 308 308 309 309 309 309 309 309 309 308 307 306 304 303 303 302 302 302 302 301 300 299 297 296 294 292 289 284 279 273 269 267 265 266
280 281 282 283 284 285 286 287 287 288 288 289 290 291 291 292 293 293 294 294 295 295 296 296 297 297 297 298 298 299 299 300 301 302 303 304 304 304 304 305 305 306 306 306 306 306 307 307 308 309 309 309 310 310 310 310 310 310 310 309 308 306 305 304 303 303 303 303 303 302 301 300 299 299 298 296 294 290 285 278 272 268 265 264 264
280 281 282 284 285 285 286 287 288 289 289 290 291 291 292 292 293 293 294 294 295 295 296 296 297 297 298 299 299 300 301 301 302 303 303 303 304 304 304 305 305 305 305 306 306 307 308 309 309 310 310 311 311 311 312 312 311 311 310 309 308 306 305 304 303 303 303 303 303 302 301 300 300 299 299 298 296 292 286 279 273 268 265 265 264
281 282 283 284 285 286 287 288 288 289 289 290 290 291 292 292 293 294 294 294 295 296 296 297 298 298 299 300 300 301 302 302 302 302 303 303 304 304 304 304 305 305 305 306 307 308 309 310 310 311 312 312 313 313 313 313 313 312 311 310 308 307 305 304 304 304 304 304 303 302 302 301 301 300 300 299 297 293 288 281 275 271 268 266 265
282 283 285 286 286 287 287 288 288 288 289 290 290 291 292 293 293 294 294 295 296 296 297 298 298 299 300 300 301 301 302 302 302 303 303 304 304 304 305 305 305 306 307 307 308 309 310 311 312 312 312 313 313 314 314 314 314 313 312 310 309 308 307 306 305 305 305 305 304 304 302 301 301 301 301 300 298 294 289 283 278 274 271 269 267
284 285 286 286 286 287 287 288 288 289 290 291 291 292 293 293 294 294 295 296 296 297 298 298 299 300 301 301 302 302 302 303 303 304 304 305 305 306 307 307 307 308 308 309 310 311 312 312 313 313 314 314 315 316 316 315 314 313 312 311 311 310 308 307 307 306 306 305 305 305 303 302 302 302 301 300 298 294 290 285 281 277 274 270 267
285 285 285 286 286 287 287 288 289 290 291 292 292 293 294 294 295 295 296 297 297 298 299 299 300 301 301 302 302 303 303 303 304 304 305 306 307 308 309 310 310 311 311 312 313 313 314 314 315 316 317 318 318 319 318 317 315 314 313 313 313 312 311 309 307 306 306 306 305 305 304 302 302 302 301 300 298 294 290 286 281 277 273 269 266
285 285 286 286 287 288 289 290 291 292 292 293 293 294 294 295 295 296 296 297 298 299 299 300 301 301 302 302 303 303 304 304 305 305 306 307 308 309 310 311 312 313 314 314 315 316 317 318 319 319 320 321 321 320 319 318 317 316 316 316 315 314 313 310 308 306 306 306 305 305 304 303 302 301 301 300 297 294 289 285 280 275 271 267 264
286 287 287 288 289 290 290 291 292 292 292 293 293 294 294 295 295 296 297 298 298 299 300 300 301 301 302 302 303 304 304 305 305 306 307 308 309 310 311 312 313 314 315 316 317 319 320 321 322 322 322 322 321 320 319 318 318 318 318 318 317 316 314 312 309 308 306 305 304 303 302 302 302 301 300 299 297 293 289 283 278 273 268 265 262
287 288 289 289 290 290 291 291 291 292 292 292 293 294 294 295 296 297 297 298 298 299 299 300 301 301 302 303 303 304 304 305 306 307 308 310 311 312 313 314 315 316 317 319 320 322 323 323 324 324 323 322 321 320 320 320 320 320 320 320 318 317 314 311 310 309 308 306 304 302 300 300 300 299 298 297 295 292 287 282 277 271 267 263 261
288 288 289 289 289 290 290 291 291 291 292 293 294 294 294 295 296 296 297 297 298 299 299 300 301 301 302 303 303 304 305 305 306 308 309 311 312 313 315 316 318 319 321 322 323 324 324 325 325 324 323 322 321 321 321 322 322 322 322 322 321 318 315 312 311 310 310 308 306 303 299 298 297 296 295 294 293 291 286 281 276 270 266 264 260
288 288 288 289 289 290 290 291 291 292 293 293 293 294 294 295 295 296 296 297 298 299 299 300 301 302 302 303 303 304 305 306 308 309 310 311 312 313 315 317 319 321 323 324 325 325 326 326 325 324 322 322 322 322 323 324 325 325 324 323 322 320 318 315 313 312 311 310 308 304 301 299 297 295 293 292 291 288 285 280 274 270 267 261 255
288 288 289 289 290 290 291 291 292 293 293 293 293 294 294 295 296 296 297 298 298 299 299 300 301 301 302 303 304 305 307 308 309 310 311 312 313 315 317 319 320 322 324 325 325 326 327 326 325 323 322 321 322 322 324 326 327 326 325 324 322 321 320 318 316 315 313 311 309 306 304 301 299 296 293 290 288 286 283 278 273 268 263 255 250
288 288 289 289 289 290 290 291 292 292 292 293 293 294 295 296 296 297 298 298 299 299 299 300 300 301 302 304 305 306 308 309 310 311 312 313 315 317 319 320 322 323 325 326 326 327 327 326 324 322 321 321 322 323 326 329 329 328 326 325 323 322 321 319 318 316 315 313 311 309 307 304 302 299 294 290 287 283 280 276 269 261 254 248 240
287 288 288 288 288 289 290 291 292 292 292 293 294 295 296 296 297 297 297 298 298 298 299 299 300 301 302 303 305 306 308 309 310 311 313 314 316 318 319 321 323 325 326 326 327 328 328 326 323 321 321 322 322 323 327 331 331 328 326 325 323 322 320 320 319 318 317 315 313 311 309 307 305 302 297 292 287 281 276 269 261 253 247 237 223
286 286 287 287 288 289 290 291 291 292 293 294 294 295 296 296 297 297 297 297 298 298 299 300 301 301 302 304 305 306 308 308 310 311 313 314 316 318 320 322 324 325 326 326 327 328 328 325 322 321 321 322 323 324 328 332 332 329 325 323 323 322 320 319 318 318 317 315 313 312 311 308 306 304 299 293 286 279 270 260 254 249 238 221 208
286 286 286 287 289 290 291 291 292 293 293 294 295 295 295 296 296 296 296 297 297 298 299 300 301 302 303 304 306 306 307 308 310 312 314 316 318 319 321 323 324 325 325 326 327 329 327 324 321 320 321 322 323 325 328 331 332 329 326 324 325 324 322 320 319 318 316 314 312 310 309 307 304 302 297 291 284 274 265 258 251 238 219 207 208
285 286 287 289 290 291 291 292 293 293 293 294 294 294 295 295 295 295 296 297 298 299 300 300 301 303 304 305 306 306 308 309 312 314 316 317 319 320 321 323 324 325 325 326 328 328 326 322 320 320 321 322 324 326 328 330 330 330 328 327 327 327 326 325 323 322 320 316 312 309 307 304 302 298 292 287 280 271 265 259 241 216 202 207 217
286 286 288 289 290 290 291 292 292 292 293 293 293 293 294 294 295 295 296 297 298 299 300 301 302 303 304 305 306 307 308 311 314 316 317 318 319 320 322 323 324 324 325 327 328 328 325 321 319 319 321 322 324 327 328 329 329 330 331 332 333 333 333 333 331 330 328 324 319 315 309 304 301 297 291 287 280 269 259 244 219 203 205 218 221
286 287 288 289 289 290 290 291 291 291 292 292 292 292 293 294 295 296 297 298 299 300 300 301 302 303 303 304 305 307 309 312 314 316 317 318 319 320 322 323 323 324 325 327 328 326 323 320 318 319 320 322 324 327 328 328 329 331 334 338 341 342 343 342 341 339 338 335 330 326 321 314 310 305 296 288 273 248 230 216 206 206 214 215 201
286 287 288 288 289 289 290 290 290 290 290 291 291 292 293 294 295 296 297 298 299 299 300 300 301 302 303 304 304 306 308 311 314 315 316 317 319 321 322 323 323 324 326 328 327 324 321 319 317 318 320 322 324 327 328 328 330 332 336 342 345 346 346 346 345 344 343 343 340 338 332 327 323 319 307 288 259 233 223 217 209 201 190 175 170
285 286 287 287 288 289 289 289 289 289 289 290 290 291 292 294 295 297 298 298 299 299 299 300 301 302 302 303 304 306 308 311 313 314 316 317 319 321 322 322 323 324 326 327 326 322 319 317 315 316 318 320 323 326 326 326 330 334 337 342 344 344 345 347 346 345 345 347 350 352 347 338 329 321 309 289 259 232 216 199 175 155 150 156 165
285 285 285 286 286 287 287 287 287 287 288 289 290 291 292 294 295 296 297 297 298 298 299 300 301 301 302 303 304 306 308 310 312 314 315 317 319 320 321 322 323 324 326 326 324 321 318 315 313 314 316 318 321 323 323 323 327 332 335 337 339 341 344 347 348 348 347 350 0 10 11 5 355 346 339 150 149 146 140 133 131 137 150 165 174
283 283 284 284 285 285 285 285 286 286 287 288 290 291 293 294 295 295 296 297 297 298 299 300 300 300 301 303 305 307 308 310 311 313 315 317 319 320 320 321 323 324 326 325 323 319 316 313 311 311 313 316 318 321 321 320 322 326 329 329 331 334 338 342 346 349 351 353 4 19 26 27 29 37 58 81 97 107 114 122 135 151 169 181 187
282 282 282 282 282 283 283 284 285 286 287 288 290 291 293 294 294 295 296 296 297 298 298 298 299 300 301 303 305 306 308 309 311 313 315 317 318 319 320 321 323 324 325 324 321 317 314 311 309 308 310 312 314 317 317 317 317 319 321 322 323 326 330 334 339 345 349 352 358 10 23 31 32 36 47 70 96 117 133 148 163 179 192 201 205
280 280 280 280 281 282 283 284 285 286 287 288 290 292 293 294 294 294 295 295 296 297 297 297 298 300 301 303 304 305 307 309 311 313 315 316 317 318 320 321 323 324 324 322 319 315 312 309 306 305 306 308 310 312 313 314 314 314 316 317 318 320 323 326 330 335 341 346 351 359 14 26 28 26 29 45 106 156 173 185 195 205 214 221 225
278 278 279 280 281 282 283 284 285 286 287 287 289 291 293 293 292 292 293 294 295 296 296 297 298 299 300 302 303 305 307 309 311 313 314 315 316 318 320 321 322 323 322 320 317 314 310 307 304 302 302 304 305 307 309 310 310 310 311 312 314 315 317 320 323 326 330 335 339 346 357 12 19 16 5 343 305 264 243 236 234 236 240 242 242
277 277 278 280 281 282 284 285 285 285 284 285 288 290 291 291 290 291 292 293 294 294 295 296 297 299 300 302 303 305 307 309 311 312 313 315 316 318 320 321 322 321 320 317 315 312 308 305 302 300 299 299 300 302 303 305 306 306 307 307 309 310 312 314 316 318 320 321 323 324 327 329 330 324 306 288 274 266 260 257 253 251 250 249 248
Height
5826 5825 5825 5824 5823 5822 5822 5821 5820 5819 5818 5817 5816 5814 5813 5812 5811 5809 5808 5806 5805 5803 5801 5799 5798 5796 5794 5792 5790 5788 5785 5783 5780 5778 5775 5773 5770 5767 5765 5761 5758 5754 5750 5746 5743 5740 5737 5732 5728 5725 5723 5719 5716 5711 5708 5705 5701 5698 5693 5689 5687 5680 5674 5672 5669 5674 5685 5685 5676 5671 5667 5662 5663 5659 5651 5648 5647 5643 5639 5636 5632 5628 5625 5622 5619
5821 5820 5820 5819 5818 5817 5816 5816 5815 5814 5813 5811 5810 5809 5808 5807 5805 5804 5803 5801 5799 5797 5795 5793 5791 5789 5787 5785 5783 5781 5779 5776 5774 5771 5769 5766 5763 5760 5757 5754 5750 5746 5743 5739 5735 5732 5729 5725 5721 5718 5715 5712 5708 5704 5701 5698 5694 5691 5687 5681 5679 5674 5666 5662 5660 5659 5666 5674 5671 5664 5658 5651 5651 5651 5643 5637 5636 5633 5629 5626 5621 5617 5614 5609 5606
5816 5815 5814 5814 5813 5812 5811 5810 5809 5808 5807 5806 5805 5804 5802 5801 5800 5798 5797 5795 5793 5791 5789 5787 5785 5783 5781 5778 5776 5774 5772 5770 5767 5765 5762 5759 5756 5752 5749 5746 5742 5739 5735 5731 5728 5724 5721 5718 5713 5710 5708 5705 5701 5697 5693 5690 5687 5683 5680 5675 5670 5667 5661 5653 5650 5647 5648 5656 5659 5655 5648 5642 5639 5639 5633 5626 5623 5621 5618 5614 5610 5606 5602 5597 5594
5810 5810 5809 5808 5807 5806 5805 5805 5804 5803 5802 5800 5800 5798 5797 5796 5794 5792 5791 5789 5787 5785 5782 5780 5778 5776 5774 5772 5770 5767 5765 5763 5760 5758 5755 5751 5748 5744 5741 5738 5734 5731 5728 5724 5720 5717 5714 5710 5706 5703 5701 5698 5694 5690 5686 5683 5679 5676 5672 5668 5662 5658 5654 5646 5640 5636 5633 5637 5643 5642 5637 5631 5627 5625 5620 5614 5611 5607 5603 5600 5596 5593 5590 5585 5580
5805 5804 5803 5802 5802 5801 5800 5799 5798 5797 5796 5795 5794 5793 5792 5790 5788 5786 5784 5782 5780 5778 5776 5774 5771 5769 5767 5764 5762 5760 5757 5754 5751 5749 5746 5743 5740 5737 5733 5730 5726 5723 5720 5716 5713 5710 5707 5703 5700 5696 5693 5691 5687 5683 5679 5675 5671 5668 5663 5659 5654 5649 5645 5639 5632 5626 5622 5620 5624 5627 5625 5619 5614 5612 5607 5599 5595 5594 5589 5586 5582 5578 5576 5572 5567
5799 5798 5797 5796 5796 5795 5794 5793 5793 5792 5791 5790 5788 5787 5785 5783 5781 5779 5777 5775 5773 5771 5769 5767 5764 5762 5759 5756 5754 5751 5748 5746 5743 5741 5738 5735 5732 5729 5726 5722 5719 5715 5712 5709 5705 5702 5699 5696 5692 5689 5685 5683 5680 5675 5671 5667 5663 5659 5654 5649 5645 5639 5635 5631 5623 5616 5612 5607 5606 5607 5608 5606 5601 5599 5594 5585 5579 5577 5573 5570 5569 5566 5561 5557 5555
5793 5792 5791 5790 5790 5789 5788 5788 5787 5786 5785 5783 5782 5780 5778 5776 5774 5772 5770 5768 5766 5764 5761 5759 5756 5754 5751 5748 5745 5742 5740 5737 5735 5732 5730 5727 5724 5721 5718 5715 5711 5708 5705 5702 5698 5695 5692 5688 5684 5681 5677 5673 5670 5665 5661 5657 5653 5650 5645 5638 5634 5630 5624 5620 5613 5606 5600 5595 5592 5590 5589 5589 5587 5584 5580 5572 5564 5561 5556 5551 5552 5553 5548 5542 5541
5786 5786 5785 5784 5784 5783 5783 5782 5781 5779 5778 5776 5775 5773 5771 5769 5767 5765 5763 5761 5758 5756 5754 5751 5749 5746 5743 5739 5736 5734 5731 5728 5726 5724 5721 5718 5716 5713 5710 5707 5704 5702 5698 5695 5691 5687 5684 5680 5676 5672 5668 5663 5659 5655 5650 5645 5641 5639 5635 5627 5621 5617 5613 5607 5601 5595 5587 5581 5579 5576 5572 5572 5572 5568 5563 5557 5550 5545 5541 5534 5532 5535 5533 5529 5528
5780 5780 5779 5778 5778 5777 5776 5775 5774 5772 5771 5769 5768 5766 5764 5762 5760 5758 5756 5753 5751 5749 5746 5743 5740 5737 5734 5730 5727 5724 5722 5719 5716 5714 5712 5710 5708 5705 5702 5699 5696 5694 5692 5688 5684 5679 5675 5672 5667 5662 5658 5653 5648 5643 5638 5633 5628 5625 5623 5617 5609 5603 5599 5595 5589 5582 5575 5568 5565 5563 5558 5556 5557 5553 5547 5543 5536 5529 5525 5520 5515 5516 5515 5513 5514
5775 5774 5773 5772 5771 5770 5769 5768 5767 5766 5764 5763 5761 5759 5757 5755 5753 5751 5748 5746 5743 5741 5738 5735 5732 5728 5724 5721 5718 5715 5712 5710 5707 5704 5702 5701 5699 5697 5694 5691 5688 5685 5683 5680 5676 5672 5667 5662 5658 5653 5648 5643 5637 5632 5627 5622 5616 5611 5608 5605 5598 5591 5585 5581 5577 5570 5561 5554 5551 5549 5544 5541 5542 5537 5530 5527 5522 5513 5509 5506 5501 5499 5497 5495 5498
5768 5767 5767 5766 5764 5763 5762 5761 5760 5759 5757 5756 5754 5752 5749 5747 5745 5743 5740 5737 5735 5732 5730 5727 5723 5720 5716 5712 5709 5705 5702 5700 5697 5695 5692 5690 5689 5687 5685 5682 5680 5676 5673 5670 5667 5663 5658 5653 5649 5644 5638 5632 5627 5621 5616 5611 5606 5600 5596 5592 5586 5579 5572 5565 5561 5556 5547 5539 5536 5534 5530 5525 5525 5522 5515 5511 5506 5498 5494 5490 5486 5482 5480 5477 5479
5762 5761 5760 5759 5758 5756 5755 5754 5753 5751 5750 5748 5746 5744 5742 5739 5737 5734 5732 5729 5726 5724 5721 5718 5714 5711 5708 5704 5700 5696 5693 5690 5688 5685 5683 5681 5679 5677 5675 5672 5670 5667 5662 5659 5656 5651 5647 5644 5640 5635 5628 5621 5615 5610 5605 5600 5596 5590 5586 5581 5576 5569 5562 5553 5545 5539 5532 5526 5522 5520 5518 5511 5506 5506 5503 5496 5489 5483 5479 5475 5470 5466 5464 5462 5462
5755 5754 5753 5752 5750 5749 5748 5746 5745 5744 5742 5740 5738 5735 5733 5731 5728 5725 5723 5720 5718 5715 5712 5709 5705 5702 5700 5696 5691 5687 5684 5681 5679 5676 5674 5672 5670 5668 5665 5662 5660 5656 5652 5648 5644 5640 5635 5631 5628 5626 5619 5610 5602 5595 5591 5588 5584 5579 5574 5569 5564 5559 5552 5544 5534 5524 5516 5511 5506 5505 5505 5498 5489 5488 5488 5480 5471 5467 5463 5458 5453 5449 5447 5446 5446
5747 5746 5745 5744 5743 5742 5740 5738 5737 5735 5734 5732 5730 5727 5725 5722 5719 5717 5714 5712 5709 5707 5703 5700 5697 5694 5691 5688 5683 5679 5675 5673 5670 5668 5666 5664 5661 5658 5655 5652 5649 5646 5642 5637 5632 5628 5623 5617 5614 5612 5608 5601 5591 5582 5576 5572 5569 5566 5562 5556 5551 5547 5541 5533 5523 5512 5504 5497 5490 5487 5488 5485 5476 5471 5470 5463 5454 5449 5444 5439 5435 5432 5429 5429 5430
5740 5739 5738 5737 5735 5734 5732 5731 5729 5727 5725 5723 5721 5719 5716 5714 5711 5708 5706 5704 5701 5698 5695 5692 5689 5686 5683 5680 5676 5670 5666 5664 5662 5659 5656 5654 5651 5648 5644 5641 5639 5635 5631 5626 5620 5615 5610 5604 5600 5597 5593 5589 5582 5571 5562 5555 5550 5548 5545 5541 5537 5533 5528 5521 5509 5498 5492 5485 5477 5471 5470 5469 5463 5456 5453 5447 5439 5432 5426 5420 5417 5416 5413 5411 5414
5733 5732 5730 5729 5727 5726 5724 5722 5721 5719 5717 5715 5713 5710 5708 5705 5703 5700 5698 5695 5693 5690 5687 5684 5681 5678 5674 5672 5668 5662 5657 5655 5652 5648 5645 5643 5640 5638 5634 5630 5628 5624 5621 5616 5610 5604 5599 5592 5587 5582 5578 5574 5568 5560 5551 5540 5533 5529 5525 5522 5520 5517 5514 5509 5496 5485 5479 5471 5465 5459 5454 5451 5447 5441 5436 5430 5424 5418 5410 5403 5402 5402 5396 5395 5400
5725 5724 5722 5721 5719 5718 5716 5714 5712 5710 5708 5706 5704 5702 5699 5697 5694 5692 5689 5687 5685 5682 5679 5676 5673 5670 5666 5663 5660 5655 5649 5645 5642 5638 5634 5631 5629 5626 5623 5619 5616 5613 5610 5606 5599 5594 5588 5581 5573 5566 5562 5558 5552 5547 5540 5529 5520 5513 5507 5502 5500 5499 5497 5492 5483 5475 5468 5458 5450 5445 5440 5435 5430 5425 5419 5414 5408 5403 5394 5387 5388 5388 5382 5381 5386
5717 5715 5714 5713 5711 5709 5708 5706 5704 5702 5700 5698 5695 5693 5691 5688 5686 5684 5681 5679 5677 5674 5671 5668 5664 5661 5658 5654 5651 5647 5641 5635 5632 5628 5624 5620 5617 5614 5610 5606 5604 5600 5597 5594 5589 5583 5577 5570 5562 5553 5546 5542 5537 5532 5527 5518 5509 5501 5493 5486 5481 5479 5477 5471 5465 5460 5455 5446 5438 5430 5423 5418 5414 5408 5404 5399 5394 5388 5380 5373 5373 5372 5368 5369 5373
5709 5707 5706 5704 5703 5701 5699 5697 5696 5694 5691 5689 5687 5684 5682 5680 5678 5676 5674 5671 5669 5666 5664 5661 5656 5652 5649 5645 5641 5637 5632 5626 5621 5618 5614 5610 5606 5601 5596 5593 5590 5588 5584 5581 5577 5573 5566 5560 5553 5544 5535 5528 5523 5517 5512 5505 5495 5486 5478 5469 5462 5458 5454 5448 5443 5439 5435 5429 5424 5417 5409 5403 5397 5391 5387 5384 5379 5374 5367 5360 5358 5356 5355 5357 5359
5700 5699 5697 5696 5695 5693 5691 5689 5687 5685 5683 5681 5679 5676 5674 5672 5670 5667 5665 5663 5661 5658 5656 5653 5649 5645 5640 5636 5631 5626 5623 5618 5611 5606 5603 5599 5594 5589 5585 5580 5576 5574 5571 5566 5561 5558 5555 5550 5544 5536 5526 5517 5510 5503 5497 5490 5480 5470 5462 5453 5443 5436 5431 5425 5420 5416 5411 5407 5404 5399 5393 5387 5380 5374 5369 5366 5363 5359 5355 5349 5344 5341 5341 5343 5345
5692 5691 5689 5688 5686 5685 5683 5681 5678 5677 5675 5673 5670 5668 5666 5663 5661 5659 5657 5654 5652 5650 5647 5644 5641 5637 5632 5627 5622 5617 5612 5608 5603 5597 5592 5588 5583 5577 5573 5568 5562 5559 5556 5553 5547 5542 5538 5535 5531 5525 5516 5507 5500 5493 5485 5478 5468 5458 5449 5438 5428 5419 5410 5402 5398 5394 5389 5386 5382 5378 5374 5368 5362 5356 5352 5347 5345 5343 5339 5336 5332 5329 5328 5329 5331
5683 5682 5681 5679 5678 5676 5674 5672 5670 5668 5666 5664 5662 5659 5657 5655 5652 5650 5648 5646 5643 5640 5637 5635 5632 5629 5624 5617 5612 5607 5602 5598 5593 5588 5582 5577 5571 5566 5560 5555 5550 5545 5542 5539 5534 5529 5524 5519 5514 5509 5502 5495 5488 5481 5473 5464 5455 5445 5436 5426 5415 5404 5394 5384 5378 5373 5368 5364 5360 5356 5353 5348 5342 5338 5334 5330 5328 5326 5323 5321 5319 5317 5317 5317 5319
5675 5673 5672 5670 5669 5667 5665 5663 5661 5659 5657 5655 5653 5651 5648 5646 5644 5642 5639 5636 5633 5631 5628 5625 5623 5621 5617 5610 5603 5598 5593 5588 5583 5578 5573 5567 5561 5555 5549 5544 5538 5532 5528 5525 5520 5515 5510 5505 5499 5493 5487 5480 5474 5466 5458 5450 5440 5431 5422 5412 5402 5391 5380 5370 5362 5355 5349 5344 5340 5336 5334 5330 5325 5321 5319 5316 5313 5311 5309 5308 5306 5306 5306 5307 5309
5666 5665 5664 5662 5660 5659 5657 5655 5653 5651 5649 5647 5645 5642 5640 5637 5635 5632 5630 5627 5624 5621 5618 5615 5613 5610 5607 5603 5596 5589 5584 5579 5573 5568 5563 5558 5551 5545 5539 5533 5527 5521 5516 5512 5507 5501 5495 5489 5483 5477 5470 5464 5458 5451 5443 5435 5426 5416 5407 5398 5388 5377 5366 5355 5347 5339 5333 5328 5323 5319 5317 5314 5310 5307 5305 5302 5300 5298 5297 5296 5295 5295 5296 5298 5300
5659 5657 5656 5655 5653 5651 5649 5647 5645 5643 5641 5639 5636 5634 5631 5628 5625 5623 5620 5617 5614 5610 5607 5605 5602 5599 5596 5593 5588 5582 5575 5570 5564 5559 5554 5549 5543 5536 5529 5523 5517 5510 5505 5500 5495 5489 5482 5474 5467 5460 5454 5448 5442 5435 5428 5420 5412 5403 5394 5384 5374 5363 5352 5341 5333 5327 5320 5315 5311 5307 5304 5301 5298 5295 5292 5290 5289 5287 5286 5285 5285 5285 5287 5289 5291
5651 5650 5648 5647 5645 5643 5641 5639 5637 5635 5632 5630 5628 5625 5622 5619 5616 5613 5610 5606 5603 5600 5597 5594 5591 5588 5585 5581 5577 5572 5566 5560 5555 5550 5545 5540 5534 5527 5521 5514 5508 5502 5495 5489 5483 5477 5470 5463 5454 5446 5439 5432 5425 5417 5410 5403 5396 5388 5380 5370 5360 5349 5339 5329 5322 5316 5310 5305 5302 5298 5294 5291 5289 5286 5283 5280 5279 5277 5276 5275 5276 5277 5278 5280 5282
5643 5642 5640 5639 5637 5635 5633 5631 5629 5626 5624 5621 5619 5616 5613 5610 5606 5603 5599 5596 5592 5589 5585 5582 5579 5576 5573 5569 5566 5561 5555 5549 5544 5540 5535 5530 5525 5519 5513 5506 5500 5493 5485 5479 5473 5467 5460 5452 5444 5434 5425 5418 5412 5404 5395 5387 5379 5371 5362 5354 5345 5336 5327 5319 5311 5305 5300 5295 5292 5289 5286 5282 5279 5277 5274 5272 5270 5269 5268 5267 5268 5269 5271 5273 5275
5635 5634 5632 5631 5629 5627 5625 5623 5620 5618 5615 5612 5610 5607 5603 5600 5596 5593 5589 5585 5582 5578 5574 5571 5568 5564 5561 5558 5555 5551 5545 5538 5533 5528 5524 5519 5514 5508 5502 5496 5489 5482 5474 5466 5461 5455 5448 5440 5433 5424 5415 5408 5402 5395 5386 5376 5366 5356 5347 5338 5331 5324 5316 5309 5303 5298 5292 5287 5283 5281 5278 5274 5271 5269 5267 5265 5263 5262 5261 5260 5261 5262 5264 5266 5268
5627 5626 5624 5622 5620 5619 5616 5614 5612 5609 5606 5603 5600 5597 5593 5590 5586 5582 5579 5575 5571 5567 5564 5560 5557 5553 5549 5545 5542 5539 5535 5529 5522 5516 5511 5505 5498 5492 5486 5479 5473 5467 5461 5454 5447 5441 5435 5429 5421 5412 5403 5396 5389 5382 5374 5365 5356 5347 5337 5328 5320 5314 5307 5300 5295 5291 5286 5280 5276 5273 5270 5267 5264 5262 5260 5258 5257 5255 5254 5254 5255 5256 5258 5260 5262
5619 5617 5616 5614 5612 5610 5608 5605 5602 5599 5596 5593 5589 5586 5583 5580 5576 5572 5568 5565 5560 5556 5553 5549 5546 5542 5538 5533 5528 5524 5521 5517 5512 5506 5500 5494 5488 5480 5473 5464 5457 5451 5445 5441 5435 5428 5421 5415 5408 5399 5389 5381 5372 5364 5357 5349 5342 5336 5329 5321 5313 5306 5300 5293 5287 5283 5280 5275 5270 5267 5263 5260 5258 5255 5254 5252 5251 5250 5249 5249 5249 5250 5252 5254 5256
5610 5609 5607 5605 5603 5601 5598 5596 5593 5590 5586 5583 5580 5576 5572 5569 5566 5563 5559 5555 5550 5546 5542 5539 5535 5531 5527 5523 5517 5512 5507 5502 5498 5494 5489 5484 5478 5473 5466 5457 5449 5442 5434 5427 5422 5416 5407 5400 5393 5385 5377 5369 5360 5350 5342 5335 5329 5323 5318 5313 5307 5299 5292 5287 5281 5276 5273 5269 5265 5261 5258 5255 5252 5250 5248 5247 5246 5245 5244 5244 5244 5246 5247 5249 5251
5601 5599 5597 5595 5593 5591 5588 5586 5583 5580 5577 5574 5571 5568 5564 5560 5556 5553 5549 5545 5540 5536 5532 5529 5525 5521 5517 5512 5507 5502 5496 5491 5485 5480 5476 5471 5467 5462 5457 5449 5442 5435 5428 5419 5411 5404 5395 5387 5379 5371 5363 5357 5350 5342 5333 5325 5318 5313 5307 5303 5298 5293 5286 5280 5274 5269 5266 5263 5259 5256 5252 5249 5247 5245 5243 5242 5241 5240 5239 5239 5240 5241 5243 5245 5247
5592 5590 5587 5585 5583 5581 5579 5576 5574 5571 5568 5565 5562 5559 5556 5552 5548 5544 5540 5536 5532 5526 5522 5518 5515 5511 5507 5502 5497 5491 5486 5481 5476 5471 5465 5460 5455 5450 5445 5439 5432 5425 5419 5412 5404 5396 5388 5379 5370 5361 5353 5345 5339 5334 5327 5319 5311 5305 5299 5293 5289 5284 5279 5273 5268 5264 5260 5256 5253 5250 5247 5244 5242 5240 5238 5237 5236 5235 5235 5235 5235 5237 5238 5240 5242
5582 5580 5578 5576 5574 5571 5569 5567 5564 5561 5559 5556 5553 5550 5546 5543 5540 5537 5533 5528 5524 5518 5513 5508 5504 5500 5496 5492 5487 5481 5476 5472 5468 5463 5458 5453 5447 5442 5436 5430 5423 5415 5407 5400 5394 5386 5378 5370 5362 5354 5345 5337 5330 5324 5320 5313 5305 5299 5293 5287 5282 5276 5272 5267 5262 5258 5254 5251 5247 5244 5241 5238 5237 5235 5233 5232 5232 5231 5231 5231 5231 5233 5235 5236 5238
5572 5570 5568 5565 5563 5561 5558 5556 5554 5552 5549 5546 5544 5540 5537 5534 5531 5528 5524 5520 5516 5511 5505 5500 5495 5490 5486 5482 5477 5472 5467 5462 5458 5453 5449 5445 5440 5436 5430 5424 5418 5411 5403 5394 5386 5377 5368 5360 5353 5345 5337 5331 5324 5317 5312 5306 5299 5293 5287 5282 5277 5271 5266 5261 5257 5253 5249 5246 5242 5239 5236 5233 5232 5230 5229 5228 5227 5227 5227 5227 5228 5229 5231 5233 5234
5561 5559 5557 5555 5552 5550 5548 5545 5544 5542 5539 5536 5533 5530 5528 5525 5521 5517 5514 5510 5506 5502 5497 5491 5486 5481 5476 5472 5467 5462 5457 5452 5448 5443 5439 5434 5430 5426 5421 5416 5411 5404 5397 5389 5380 5371 5362 5352 5345 5338 5331 5324 5319 5312 5306 5300 5294 5288 5282 5276 5271 5266 5261 5256 5252 5248 5244 5241 5238 5235 5232 5229 5227 5226 5225 5224 5223 5223 5223 5224 5225 5226 5228 5229 5231
5551 5549 5547 5544 5542 5540 5538 5536 5534 5532 5528 5526 5523 5520 5517 5514 5510 5507 5503 5499 5495 5492 5487 5483 5479 5474 5468 5464 5460 5455 5449 5444 5440 5435 5429 5424 5419 5415 5410 5406 5400 5395 5388 5381 5373 5365 5356 5346 5338 5332 5325 5319 5313 5308 5302 5296 5289 5283 5277 5271 5266 5261 5256 5252 5248 5244 5240 5237 5234 5231 5228 5225 5224 5222 5221 5220 5220 5220 5220 5221 5222 5223 5225 5226 5228
5541 5539 5536 5534 5532 5530 5528 5526 5524 5521 5518 5515 5512 5509 5506 5503 5499 5496 5492 5489 5485 5482 5477 5473 5470 5466 5462 5458 5454 5449 5444 5439 5434 5428 5422 5417 5412 5407 5402 5396 5391 5385 5378 5372 5364 5357 5348 5340 5333 5326 5320 5314 5309 5303 5298 5292 5286 5279 5273 5267 5262 5257 5252 5248 5244 5240 5236 5233 5230 5227 5225 5222 5221 5219 5218 5218 5217 5217 5218 5219 5219 5221 5222 5223 5226
5531 5529 5526 5524 5523 5521 5518 5516 5514 5511 5508 5505 5501 5498 5495 5492 5489 5485 5482 5478 5475 5471 5467 5464 5460 5457 5454 5451 5447 5443 5438 5433 5428 5423 5418 5411 5405 5400 5394 5389 5383 5377 5370 5364 5357 5349 5341 5333 5327 5321 5315 5309 5304 5299 5294 5289 5283 5276 5269 5263 5258 5253 5248 5244 5240 5236 5233 5230 5227 5224 5222 5220 5218 5217 5216 5216 5215 5215 5216 5217 5217 5219 5220 5222 5224
5521 5518 5516 5514 5512 5510 5508 5505 5503 5500 5497 5494 5491 5488 5485 5481 5478 5475 5471 5468 5465 5461 5458 5454 5451 5448 5445 5442 5438 5435 5431 5426 5421 5416 5411 5405 5399 5393 5387 5381 5376 5369 5363 5357 5351 5343 5335 5328 5322 5316 5311 5305 5300 5295 5290 5285 5280 5274 5267 5260 5254 5249 5244 5240 5236 5233 5230 5227 5224 5222 5219 5217 5216 5215 5214 5214 5213 5214 5214 5215 5216 5217 5219 5221 5223
5510 5507 5505 5504 5502 5499 5497 5494 5492 5489 5486 5483 5480 5477 5474 5471 5468 5465 5461 5458 5455 5452 5448 5445 5441 5438 5435 5432 5429 5426 5422 5418 5413 5408 5402 5397 5392 5386 5380 5374 5368 5362 5356 5350 5345 5338 5331 5324 5317 5312 5307 5302 5297 5292 5288 5283 5277 5272 5265 5259 5252 5247 5242 5237 5233 5230 5227 5224 5221 5219 5217 5215 5214 5213 5212 5212 5212 5212 5213 5214 5215 5216 5218 5220 5222
5499 5497 5495 5493 5491 5489 5486 5484 5481 5478 5475 5472 5470 5467 5464 5461 5458 5455 5452 5449 5446 5443 5440 5436 5433 5429 5426 5423 5420 5416 5413 5409 5405 5400 5395 5390 5384 5379 5373 5367 5361 5355 5349 5343 5338 5332 5325 5319 5313 5308 5303 5298 5294 5290 5286 5281 5276 5270 5264 5258 5252 5246 5241 5237 5233 5229 5226 5223 5220 5217 5215 5213 5212 5211 5210 5210 5210 5211 5212 5213 5214 5216 5218 5219 5221
5488 5486 5484 5483 5481 5478 5476 5473 5470 5467 5464 5462 5459 5456 5454 5451 5448 5445 5442 5440 5437 5434 5431 5428 5425 5421 5418 5414 5411 5408 5404 5400 5396 5392 5387 5382 5377 5372 5366 5360 5354 5348 5342 5336 5330 5325 5319 5314 5309 5303 5299 5294 5290 5286 5283 5279 5274 5269 5263 5257 5252 5246 5242 5237 5233 5230 5226 5223 5220 5217 5214 5212 5211 5210 5209 5209 5210 5210 5211 5213 5214 5215 5217 5218 5220
5477 5475 5473 5471 5469 5467 5465 5463 5459 5456 5454 5451 5449 5446 5444 5441 5439 5436 5434 5431 5428 5425 5423 5420 5417 5413 5410 5406 5403 5399 5395 5391 5387 5383 5379 5375 5370 5365 5359 5353 5347 5341 5335 5329 5323 5318 5313 5309 5305 5300 5295 5290 5286 5282 5279 5276 5272 5267 5262 5257 5252 5247 5243 5239 5235 5231 5227 5223 5220 5217 5215 5213 5212 5210 5210 5210 5210 5211 5212 5213 5214 5215 5216 5218 5221
5466 5464 5462 5460 5458 5456 5454 5452 5449 5446 5444 5441 5438 5436 5434 5432 5429 5427 5425 5422 5420 5417 5414 5412 5409 5406 5402 5398 5394 5391 5387 5383 5379 5375 5371 5367 5363 5358 5352 5346 5340 5335 5329 5323 5318 5312 5308 5304 5301 5297 5292 5287 5283 5279 5276 5273 5270 5265 5261 5257 5253 5249 5245 5241 5237 5233 5229 5225 5222 5219 5216 5214 5213 5211 5211 5210 5210 5211 5212 5213 5213 5215 5217 5220 5224
5455 5453 5451 5449 5448 5446 5443 5441 5438 5436 5433 5431 5429 5427 5425 5423 5421 5419 5416 5414 5412 5409 5406 5403 5400 5397 5394 5390 5386 5383 5379 5375 5371 5368 5364 5359 5355 5350 5345 5339 5334 5328 5323 5317 5312 5307 5303 5299 5296 5293 5289 5285 5281 5277 5274 5271 5268 5264 5260 5257 5253 5250 5247 5243 5239 5235 5232 5228 5224 5222 5219 5217 5215 5213 5212 5212 5211 5212 5213 5214 5216 5218 5221 5224 5227
5443 5442 5440 5438 5437 5435 5432 5430 5428 5426 5424 5421 5419 5417 5416 5414 5412 5410 5408 5406 5403 5401 5398 5395 5392 5389 5386 5382 5379 5375 5371 5367 5364 5360 5356 5352 5347 5342 5337 5333 5328 5322 5316 5310 5305 5301 5297 5294 5291 5288 5285 5281 5278 5274 5271 5268 5265 5262 5259 5256 5253 5250 5247 5244 5241 5237 5234 5230 5227 5225 5222 5221 5219 5217 5216 5215 5215 5215 5216 5218 5220 5223 5225 5227 5228
5432 5430 5428 5427 5425 5423 5422 5420 5418 5416 5414 5412 5410 5409 5407 5405 5404 5402 5400 5397 5395 5392 5389 5386 5383 5381 5377 5374 5371 5367 5364 5360 5356 5352 5348 5344 5339 5335 5330 5325 5320 5315 5310 5305 5300 5295 5292 5288 5285 5283 5280 5277 5274 5271 5268 5266 5263 5260 5257 5254 5252 5249 5247 5244 5241 5238 5235 5233 5230 5227 5225 5223 5222 5220 5220 5219 5219 5220 5221 5222 5224 5226 5227 5228 5229
5421 5419 5417 5415 5414 5413 5411 5410 5408 5406 5405 5403 5402 5400 5399 5397 5395 5393 5391 5388 5386 5384 5381 5378 5375 5372 5369 5366 5363 5359 5356 5352 5349 5345 5340 5336 5332 5327 5322 5317 5313 5308 5303 5298 5294 5290 5286 5283 5280 5278 5275 5273 5271 5268 5265 5263 5260 5258 5255 5252 5250 5248 5245 5243 5241 5238 5236 5234 5231 5229 5227 5226 5225 5224 5223 5223 5223 5224 5224 5225 5226 5227 5227 5228 5229
5409 5407 5406 5405 5403 5402 5401 5400 5399 5397 5396 5394 5393 5392 5390 5388 5386 5384 5382 5380 5377 5375 5372 5370 5367 5364 5361 5358 5355 5351 5348 5345 5341 5337 5333 5328 5324 5320 5315 5310 5306 5301 5296 5292 5288 5284 5281 5278 5275 5272 5270 5268 5266 5264 5262 5259 5257 5255 5253 5250 5248 5246 5244 5241 5239 5237 5236 5234 5232 5230 5229 5228 5227 5226 5226 5226 5226 5226 5226 5226 5226 5227 5227 5227 5228
5398 5397 5395 5394 5393 5392 5391 5390 5389 5388 5387 5386 5385 5383 5381 5380 5378 5376 5373 5371 5369 5366 5364 5361 5358 5355 5352 5350 5347 5344 5341 5337 5333 5329 5325 5321 5317 5313 5309 5304 5299 5294 5289 5285 5281 5278 5275 5272 5269 5267 5265 5263 5261 5259 5257 5255 5253 5252 5250 5248 5246 5244 5242 5240 5238 5236 5234 5233 5232 5230 5229 5228 5227 5227 5226 5226 5226 5226 5226 5226 5226 5226 5226 5226 5226